Location: Newark
(48.8481°N, 20.9372°E)
Time: 02:58:53
(UTC+00:00)

DELFI C3 - Visible Passes

Search period start: 02 April 2020 00:00
Search period end: 12 April 2020 00:00
Orbit: 536 x 551 km, 97.4° (Epoch: 01 April)

Date Brightness Start Highest point End Pass type
(mag) Time Alt. Az. Time Alt. Az. Time Alt. Az.
02 Apr ? 17:54:02 10° SE 17:57:43 38° ENE 18:01:25 10° N visible
02 Apr ? 19:29:25 10° SW 19:32:28 21° W 19:35:33 10° NW visible
03 Apr ? 17:47:55 10° SE 17:51:30 33° ENE 17:55:05 10° N visible
03 Apr ? 19:22:54 10° SSW 19:26:10 24° W 19:29:28 10° NW visible
04 Apr ? 17:41:50 10° SE 17:45:16 29° ENE 17:48:43 10° N visible
04 Apr ? 19:16:26 10° SSW 19:19:52 28° W 19:23:20 10° NW visible
05 Apr ? 19:10:00 10° SSW 19:13:34 32° W 19:17:10 10° NNW visible
06 Apr ? 19:03:35 10° SSW 19:07:17 37° W 19:11:00 10° NNW visible
07 Apr ? 18:57:12 10° S 19:00:59 43° W 19:04:47 10° NNW visible
08 Apr ? 18:50:51 10° S 18:54:42 51° W 18:58:35 10° NNW visible
09 Apr ? 18:44:31 10° S 18:48:25 60° W 18:52:20 10° NNW visible
10 Apr ? 18:38:11 10° S 18:42:08 70° WSW 18:46:05 10° NNW visible
11 Apr ? 18:31:54 10° SSE 18:35:50 82° WSW 18:39:49 10° NNW visible
